Regional Weather Roundup
Issued by NWS Sioux Falls, SD

Home | Current Version | Previous Version | Graphics & Text | Print | Product List | Glossary Off
Versions: 1 2 3 4 5 6 7 8 9 10 11 12 13 14 15 16 17 18 19 20 21 22 23 24 25 26 27 28 29 30 31 32 33 34 35 36 37 38 39 40 41 42 43 44 45 46 47 48 49 50

000
ASUS43 KFSD 180110
RWRFSD

WEATHER ROUNDUP FOR SE SOUTH DAKOTA/SW MINNESOTA/NW IOWA
NATIONAL WEATHER SERVICE SIOUX FALLS SD
700 PM CST WED DEC 17 2014

NOTE: "FAIR" INDICATES FEW OR NO CLOUDS BELOW 12,000 FEET WITH NO
SIGNIFICANT WEATHER AND OR OBSTRUCTIONS TO VISIBILITY.


SDZ038>040-050-052>070-180200-
SOUTHEAST SOUTH DAKOTA

CITY           SKY/WX    TMP DP  RH WIND       PRES   REMARKS
CHAMBERLAIN    CLOUDY    16  13  88 E9        30.20S WCI   4
HURON          CLOUDY    11   8  88 E3        30.27S
MADISON        FAIR       9   9 100 E6        30.26S WCI  -1
MITCHELL       PTCLDY    13  10  88 E3        30.27F
SIOUX FALLS    PTCLDY    11   8  88 NE7       30.27F WCI   0
WINNER         CLOUDY    21  18  88 SE12      30.15S WCI   9
YANKTON        PTCLDY    14  10  85 NE5       30.27S WCI   6
$$

MNZ071-072-080-081-089-090-097-098-180200-
SOUTHWEST MINNESOTA

CITY           SKY/WX    TMP DP  RH WIND       PRES   REMARKS
FAIRMONT       PTCLDY    16  10  79 NW3       30.30R
JACKSON        PTCLDY    14  10  85 CALM      30.29R
LUVERNE        PTCLDY    19  14  79 CALM      30.30S
MARSHALL       PTCLDY     9   5  85 W3        30.30R
MONTEVIDEO     PTCLDY    10  10 100 CALM      30.32S
REDWOOD FALLS  MOCLDY    12   9  87 NW7       30.31R WCI   1
TRACY          PTCLDY    10   7  89 SW3       30.30R
WINDOM           N/A     10   9  92 CALM      30.29R
WORTHINGTON    PTCLDY    14  10  85 CALM      30.28S
$$

IAZ001>003-012>014-020>022-031-032-NEZ013-014-SDZ071-180200-
NORTHWEST IOWA

CITY           SKY/WX    TMP DP  RH WIND       PRES   REMARKS
CHEROKEE       CLEAR     20  18  92 NE5       30.27F WCI  13
DENISON        FAIR      21  18  86 CALM      30.24S
ESTHERVILLE    PTCLDY    15  12  88 N5        30.28R WCI   8
LE MARS        FAIR      19  16  86 NE6       30.26F WCI  11
ORANGE CITY    CLEAR     21  16  79 NE5       30.25F WCI  15
SHELDON        PTCLDY    14  12  92 N7        30.26F WCI   4
SIOUX CITY     CLOUDY    24  16  71 NE5       30.28S WCI  18
SPENCER        PTCLDY    17  12  80 N5        30.29S WCI  10
STORM LAKE     CLEAR     19  16  86 NE6       30.26S WCI  11
$$

ABBREVIATIONS USED IN REMARKS
   TC - TEMPERATURE IN CELSIUS
  WCI - WIND CHILL INDEX
   HX - HEAT INDEX
  VSB - VISIBILITY



USA.gov is the U.S. government's official web portal to all federal, state and local government web resources and services.